STARLINK-34566

Last updated on Fri Aug 08 2025 00:02:05 GMT+0000 (Coordinated Universal Time)

1 64765U 25147L 25218.93856702 -.00003177 00000+0 -49192-4 0 9993 2 64765 53.1596 163.0021 0001423 85.4557 274.6615 15.49248185 5830
UTC large
Height (km)
Speed (km/s)
/
Latitude / Longitude
Inclination (degrees)
Orbital Period (minutes)
Azimuth
Elevation
Range (km)
Doppler Factor

Next 0 passes for location: London (51.5072 / 0.1276)

Sorry there are no passes over London.
STARLINK-34566